Change the Weather History Date:

Saturday, August 31, 2013

  Actual Average Record
Temperature  
Mean Temperature 80 °F 76 °F  
Max Temperature 90 °F 87 °F 99 °F (1932)
Min Temperature 70 °F 66 °F 49 °F (1946)
Degree Days  
Heating Degree Days 0 0  
Month to date heating degree days 0 0  
Since 1 June heating degree days 0 4  
Since 1 July heating degree days 0 0  
Cooling Degree Days 15 11  
Month to date cooling degree days 361 397  
Year to date cooling degree days 1187 1281  
Since 1 June cooling degree days 1031 1119  
Growing Degree Days 32 (Base 50)    
Moisture  
Dew Point 72 °F    
Average Humidity 73    
Maximum Humidity 94    
Minimum Humidity 52    
Precipitation  
Precipitation 0.24 in 0.09 in 1.38 in (1897)
Month to date precipitation 3.20 3.27  
Year to date precipitation 51.37 33.60  
Snow  
Snow 0.00 in 0.00 in - ()
Month to date snowfall 0.0 0.0  
Since 1 June snowfall 0.0 0.0  
Since 1 July snowfall 0.0 0.0  
Snow Depth 0.00 in    
Sea Level Pressure  
Sea Level Pressure 29.92 in    
Wind  
Wind Speed 7 mph (WSW)    
Max Wind Speed 17 mph    
Max Gust Speed 24 mph    
Visibility 6 miles    
Events Rain , Thunderstorm    
T = Trace of Precipitation, MM = Missing Value Source: NWS Daily Summary

Daily Weather History Graph

Daily Weather History Graph

Search for Another Location

Airport or City:

Trip Planner

Search our weather history database for the weather conditions in past years. The results will help you decide how hot, cold, wet, or windy it might be!

Date:

Astronomy

Aug. 31, 2013 Rise Set
Actual Time 7:07 AM EDT 8:04 PM EDT
Civil Twilight 6:41 AM EDT 8:30 PM EDT
Nautical Twilight 6:10 AM EDT 9:01 PM EDT
Astronomical Twilight 5:38 AM EDT 9:33 PM EDT
Moon 2:40 AM EDT (8/31) 4:57 PM EDT (8/31)
Length of Visible Light 13h 49m
Length of Day
12h 57m
Waning Crescent, 21% of the Moon is Illuminated
Aug 31
Waning Crescent
Sep 5
New
Sep 12
First Quarter
Sep 19
Full
Sep 26
Last Quarter

Hourly Weather History & Observations

Time (EDT) Temp. Heat Index Dew Point Humidity Pressure Visibility Wind Dir Wind Speed Gust Speed Precip Events Conditions
12:53 AM 75.9 °F - 73.0 °F 91% 29.91 in 8.0 mi WSW 8.1 mph - N/A   Mostly Cloudy
1:53 AM 75.9 °F - 73.0 °F 91% 29.91 in 7.0 mi WSW 4.6 mph - N/A   Mostly Cloudy
2:53 AM 75.0 °F - 73.0 °F 94% 29.91 in 6.0 mi West 4.6 mph - N/A   Scattered Clouds
3:53 AM 73.9 °F - 72.0 °F 93% 29.91 in 7.0 mi West 6.9 mph - N/A   Scattered Clouds
4:53 AM 73.9 °F - 72.0 °F 93% 29.91 in 7.0 mi WSW 4.6 mph - N/A   Mostly Cloudy
5:53 AM 73.9 °F - 71.1 °F 91% 29.92 in 7.0 mi West 5.8 mph - N/A   Scattered Clouds
6:28 AM 73.4 °F - 71.6 °F 94% 29.96 in 6.0 mi SSW 8.1 mph - 0.00 in Rain , Thunderstorm Light Thunderstorms and Rain
6:53 AM 73.9 °F - 72.0 °F 93% 29.92 in 6.0 mi West 6.9 mph - 0.00 in Rain , Thunderstorm Light Thunderstorms and Rain
7:16 AM 73.4 °F - 71.6 °F 94% 29.96 in 8.0 mi WSW 8.1 mph - 0.00 in   Mostly Cloudy
7:45 AM 73.4 °F - 71.6 °F 94% 29.98 in 2.0 mi West 4.6 mph - 0.00 in Rain Rain
7:51 AM 73.4 °F - 73.4 °F 100% 29.98 in 2.0 mi WSW 6.9 mph - 0.02 in Rain , Thunderstorm Thunderstorms and Rain
7:53 AM 73.9 °F - 73.0 °F 97% 29.95 in 2.0 mi WSW 5.8 mph - 0.03 in Rain , Thunderstorm Thunderstorms and Rain
8:16 AM 73.4 °F - 73.4 °F 100% 29.97 in 2.5 mi SSW 6.9 mph - 0.20 in Rain Light Rain
8:24 AM 73.4 °F - 71.6 °F 94% 29.97 in 3.0 mi SW 6.9 mph - 0.20 in   Mostly Cloudy
8:44 AM 75.2 °F - 73.4 °F 94% 29.97 in 2.5 mi SW 8.1 mph - 0.20 in   Mostly Cloudy
8:53 AM 75.0 °F - 73.0 °F 94% 29.94 in 2.5 mi SSW 8.1 mph - 0.20 in   Mostly Cloudy
9:18 AM 75.2 °F - 73.4 °F 94% 29.98 in 2.5 mi SSW 6.9 mph - N/A   Mostly Cloudy
9:53 AM 75.9 °F - 73.0 °F 91% 29.96 in 2.5 mi SW 3.5 mph - N/A   Mostly Cloudy
10:14 AM 78.8 °F - 73.4 °F 83% 29.99 in 3.0 mi Variable 3.5 mph - N/A   Mostly Cloudy
10:53 AM 80.1 °F 84.5 °F 73.9 °F 81% 29.94 in 4.0 mi Calm Calm - N/A   Haze
11:15 AM 80.6 °F 85.4 °F 73.4 °F 79% 29.98 in 4.0 mi WSW 6.9 mph - N/A   Haze
11:53 AM 82.0 °F 87.4 °F 73.0 °F 74% 29.95 in 6.0 mi West 9.2 mph - N/A   Haze
12:23 PM 82.4 °F 88.2 °F 73.4 °F 74% 29.97 in 6.0 mi SW 5.8 mph - N/A   Haze
12:53 PM 84.9 °F 92.1 °F 73.9 °F 69% 29.93 in 6.0 mi WSW 4.6 mph - N/A   Haze
1:53 PM 84.9 °F 91.4 °F 73.0 °F 67% 29.91 in 7.0 mi WSW 6.9 mph - N/A   Scattered Clouds
2:53 PM 88.0 °F 94.7 °F 72.0 °F 59% 29.88 in 7.0 mi West 9.2 mph - N/A   Scattered Clouds
3:53 PM 88.0 °F 93.8 °F 71.1 °F 57% 29.85 in 10.0 mi West 5.8 mph - N/A   Scattered Clouds
4:53 PM 89.1 °F 94.1 °F 70.0 °F 53% 29.83 in 10.0 mi SW 9.2 mph - N/A   Scattered Clouds
5:53 PM 89.1 °F 93.7 °F 69.1 °F 52% 29.83 in 10.0 mi WSW 8.1 mph - N/A   Mostly Cloudy
6:53 PM 87.1 °F 92.0 °F 70.0 °F 57% 29.84 in 10.0 mi SW 10.4 mph - N/A   Scattered Clouds
7:53 PM 82.0 °F 86.3 °F 71.1 °F 69% 29.85 in 10.0 mi WSW 4.6 mph - N/A   Mostly Cloudy
8:53 PM 81.0 °F 84.9 °F 71.1 °F 72% 29.88 in 10.0 mi SW 5.8 mph - N/A   Mostly Cloudy
9:53 PM 79.0 °F - 70.0 °F 74% 29.88 in 10.0 mi NNW 17.3 mph 24.2 mph N/A   Mostly Cloudy
9:57 PM 77.0 °F - 68.0 °F 74% 29.93 in 10.0 mi NNW 16.1 mph 24.2 mph N/A Thunderstorm Mostly Cloudy
10:06 PM 75.2 °F - 66.2 °F 73% 29.93 in 10.0 mi North 10.4 mph 19.6 mph N/A Thunderstorm Overcast
10:31 PM 75.2 °F - 68.0 °F 78% 29.93 in 5.0 mi North 10.4 mph - 0.00 in Rain , Thunderstorm Light Thunderstorms and Rain
10:53 PM 73.9 °F - 69.1 °F 85% 29.91 in 10.0 mi ESE 6.9 mph - 0.01 in Rain Light Rain
11:53 PM 71.1 °F - 68.0 °F 90% 29.89 in 10.0 mi East 4.6 mph - 0.00 in   Overcast